Regional Weather Roundup
Issued by NWS Glasgow, MT

Current Version | Previous Version | Text Only | Print | Product List | Glossary On
Versions: 1 2 3 4 5 6 7 8 9 10 11 12 13 14 15 16 17 18 19 20 21 22 23 24 25 26 27
000
ASUS45 KGGW 300515
RWRGGW
HOURLY REGIONAL WEATHER ROUNDUP FOR NORTHEAST MONTANA
NATIONAL WEATHER SERVICE GLASGOW MONTANA
1100 PM MDT SAT APR 29 2017

NOTE: "FAIR" INDICATES FEW OR NO CLOUDS BELOW 12,000 FEET WITH NO
SIGNIFICANT WEATHER AND/OR OBSTRUCTIONS TO VISISBILITY.

NORTHEAST MONTANA


CITY           SKY/WX    TMP DP  RH WIND       PRES   REMARKS
GLASGOW        CLOUDY    46  35  65 CALM      30.06F
PLENTYWOOD       N/A     46  30  53 SE8G21      N/A
WOLF POINT     PTCLDY    41  31  67 N5        30.08F
JORDAN           N/A     43  28  55 CALM      30.08F
WINNETT          N/A     39  35  86 W2          N/A
SIDNEY         CLEAR     41  32  70 SW6       30.12S
GLENDIVE       CLEAR     44  27  51 S6        30.13S
MALTA            N/A     42  39  89 NE1         N/A
SCOBEY           N/A     46  30  54 CALM      30.07S

FORT PECK REPORTS


CITY           SKY/WX    TMP DP  RH WIND       PRES   REMARKS
FORT PECK        N/A     48  33  56 E3          N/A
THE PINES        N/A     45  33  63 CALM        N/A

SOUTHEAST MONTANA


CITY           SKY/WX    TMP DP  RH WIND       PRES   REMARKS
BILLINGS       CLEAR     44  30  57 S6        30.09F
MILES CITY     CLEAR     43  30  60 SE9       30.12S
BAKER          NOT AVBL
LIVINGSTON     CLEAR     39  29  67 S9        30.07F

CENTRAL MONTANA


CITY           SKY/WX    TMP DP  RH WIND       PRES   REMARKS
HAVRE          CLOUDY    41  33  73 SW9       29.99F
LEWISTOWN      CLEAR     36  32  85 SE7       30.05F
GREAT FALLS    CLEAR     36  27  69 SW8       30.03S
CUT BANK       CLOUDY    42  30  62 SW6       29.99F
HELENA         PTCLDY    49  24  37 SE5       30.05F
BUTTE          CLOUDY    41  23  48 VRB3      30.10S
BOZEMAN        CLEAR     40  30  67 S10       30.06F

WESTERN MONTANA


CITY           SKY/WX    TMP DP  RH WIND       PRES   REMARKS
MISSOULA       CLOUDY    45  34  65 SE3       30.10R
KALISPELL      NOT AVBL

NORTH DAKOTA


CITY           SKY/WX    TMP DP  RH WIND       PRES   REMARKS
WILLISTON      CLEAR     37  30  75 CALM      30.12S
DICKINSON      CLEAR     35  18  49 S8        30.14F
MINOT          CLEAR     46  31  55 S9        30.13S
BISMARCK       CLOUDY    42  28  57 SE7       30.19F

SOUTHERN SASKATCHEWAN


CITY           SKY/WX    TMP DP  RH WIND       PRES   REMARKS
REGINA         LGT RAIN  45  39  81 SW7       30.09S
ESTEVAN        CLEAR     43  34  70 SE9       30.10S
SWIFT CURRENT  CLEAR     39  37  93 S15       29.98S





USA.gov is the U.S. government's official web portal to all federal, state and local government web resources and services.